[[{"header":{"parameterUnit":"m.s-1","parameterCategory":1,"la1":30.2991,"la2":30.254,"lo1":-89.0895,"lo2":-89.0444,"dy":0.0017,"dx":0.0017,"nx":28,"ny":28,"refTime":"2023-10-22T03:00:00:Z","depth":0,"parameterNumber":2,"parameterNumberName":"U-component_of_WINDS"},"data":[0,0,0,0,0,0,0,0,0,0,0,0,0,0,0,0,0,0,0,0,0,0,0,0,0,0,0,0,0,0,0,0,0,0,0,0,0,0,0,0,0,0,0,0,0,0,0,0,0,0,0,0,0,0,0,0,0,0,0.6345,0.6345,0,0.6396,0.6396,0.6397,0.6413,0.6413,0.6413,0.6413,0.6463,0.6464,0.6466,0,0,0,0,0,0,0,0,0,0,0,0,0,0.626,0.6261,0.6345,0.6345,0.6346,0.6395,0.6396,0.6397,0.6413,0.6413,0.6413,0.6413,0.6462,0.6464,0.6466,0,0,0,0,0,0,0,0,0,0,0,0,0,0.6302,0.6262,0.6345,0.636,0.6362,0.6395,0.6396,0.6397,0.6413,0.6413,0.6413,0.6412,0.6462,0.6464,0.6466,0.6487,0,0,0.6473,0.6474,0,0,0,0,0,0,0,0,0.63,0.6305,0.6357,0.6359,0.6361,0.6398,0.6385,0.6427,0.6413,0.6394,0.6413,0.6412,0.6441,0.6445,0.6455,0.6489,0.6491,0.6473,0.6475,0.6476,0.6477,0,0,0,0,0,0,0,0.6297,0.6303,0.6365,0.6358,0.636,0.6364,0.637,0.6393,0.6419,0.6396,0.6397,0.6403,0.6442,0.6453,0.6457,0.6492,0.6473,0.6475,0.6477,0.6478,0.6546,0.6546,0,0,0,0,0,0,0.6292,0.6301,0.6363,0.6366,0.6329,0.6366,0.6372,0.6386,0.6419,0.6423,0.6403,0.6403,0.6449,0.6454,0.6459,0.6485,0.6476,0.6478,0.6479,0.6545,0.6546,0.6546,0,0,0,0,0,0,0.629,0.6297,0.6361,0.6334,0.6342,0.6368,0.6383,0.6388,0.6398,0.6424,0.6429,0.6409,0.6449,0.6455,0.648,0.6487,0.6479,0.6481,0.6545,0.6546,0.6546,0.6538,0,0,0,0,0,0,0.6287,0.6296,0.6305,0.6334,0.6344,0.6382,0.6384,0.6389,0.6403,0.6404,0.6431,0.6436,0.645,0.6476,0.6482,0.649,0.6483,0.6544,0.6545,0.6546,0.6538,0.6539,0.6539,0,0,0,0,0,0.6284,0.63,0.6305,0.6312,0.6355,0.6382,0.6388,0.6404,0.6403,0.6412,0.6428,0.6435,0.6485,0.6479,0.6486,0.6494,0.6544,0.6545,0.6546,0.6538,0.6538,0.6539,0,0,0,0,0,0,0.627,0.6304,0.631,0.6336,0.6356,0.6385,0.6396,0.6404,0.6425,0.6425,0.6443,0.6449,0.6473,0.6486,0.6478,0.6516,0.6515,0.6517,0.6506,0.6507,0.6508,0.6504,0.6485,0,0,0,0,0,0.627,0.629,0.6319,0.6339,0.6349,0.6371,0.6383,0.6394,0.6416,0.6424,0.6442,0.6462,0.6483,0.6496,0.6516,0.654,0.6546,0.6549,0.655,0.655,0.6552,0.6566,0.6567,0.655,0.655,0.6549,0,0,0.627,0.6291,0.6302,0.6336,0.6353,0.6373,0.6378,0.6398,0.6413,0.6427,0.6452,0.6466,0.6489,0.6514,0.6525,0.6525,0.6558,0.6551,0.6551,0.6553,0.6567,0.6568,0.657,0.655,0.655,0.655,0,0,0.628,0.6298,0.6317,0.6334,0.636,0.6375,0.638,0.6408,0.6418,0.6443,0.6454,0.6471,0.6506,0.6522,0.6535,0.6552,0.6559,0.6558,0.6561,0.6574,0.6575,0.6577,0.6583,0.6585,0.656,0.656,0.656,0,0.6276,0.6308,0.6326,0.6346,0.6361,0.6375,0.6394,0.6409,0.644,0.645,0.6449,0.6494,0.6511,0.6539,0.6543,0.6553,0.6559,0.6555,0.6574,0.6575,0.6577,0.6583,0.6585,0.656,0.656,0.656,0.656,0,0.6302,0.6323,0.6335,0.6366,0.6382,0.6401,0.6422,0.6435,0.6445,0.6459,0.6485,0.6506,0.6531,0.6538,0.6547,0.6568,0.6567,0.657,0.657,0.6578,0.6584,0.6586,0.6559,0.6559,0.6559,0.656,0,0,0.6304,0.6345,0.6349,0.6363,0.6393,0.641,0.643,0.6455,0.6466,0.6487,0.6504,0.6534,0.6537,0.6551,0.6563,0.6574,0.6586,0.6576,0.6577,0.6577,0.661,0.6608,0.661,0.6591,0.6592,0.6592,0.6608,0,0.6318,0.6355,0.6372,0.6402,0.6422,0.6436,0.6453,0.6473,0.6487,0.6506,0.6521,0.6542,0.6545,0.6553,0.6566,0.6582,0.6593,0.6581,0.6607,0.6607,0.66,0.6613,0.661,0.6625,0.6611,0.6611,0.6611,0,0.6339,0.6361,0.6393,0.6421,0.643,0.6445,0.647,0.6487,0.651,0.652,0.6536,0.6547,0.6569,0.6567,0.6596,0.6587,0.6599,0.6609,0.661,0.6612,0.661,0.6616,0.663,0.6632,0.6615,0.6615,0.6615,0,0.6337,0.6375,0.6399,0.641,0.6444,0.6454,0.6468,0.6491,0.6505,0.6526,0.6536,0.6559,0.6571,0.6589,0.6605,0.6602,0.6633,0.6632,0.6641,0.6641,0.6647,0.6646,0.6662,0.6654,0.6654,0.6654,0.6654,0,0.6351,0.637,0.6398,0.6413,0.6434,0.6454,0.6474,0.6489,0.6509,0.6527,0.654,0.6556,0.6577,0.6596,0.6609,0.6631,0.6637,0.6645,0.6648,0.6643,0.6642,0.6651,0.665,0.6655,0.6655,0.6654,0.6654,0,0.6352,0.6372,0.6399,0.6429,0.6437,0.6452,0.6477,0.6491,0.6506,0.6528,0.6534,0.6558,0.658,0.6599,0.6628,0.6637,0.666,0.6664,0.6653,0.6654,0.6662,0.6661,0.6684,0.6688,0.6677,0.6677,0.6678,0,0.636,0.6375,0.6406,0.6419,0.6434,0.6454,0.6469,0.6489,0.6503,0.6531,0.6542,0.6566,0.6586,0.6621,0.664,0.6663,0.6667,0.6673,0.667,0.6665,0.6667,0.6666,0.6667,0.6674,0.6674,0.6674,0.6674,0,0.637,0.638,0.6401,0.6426,0.6443,0.6463,0.6484,0.6493,0.6517,0.6532,0.6556,0.6572,0.6602,0.6625,0.665,0.6664,0.6672,0.6675,0.6678,0.6673,0.6666,0.667,0.6653,0.6674,0.6674,0.6674,0.6674,0.6674,0.6375,0.6389,0.6414,0.6437,0.6454,0.6473,0.6489,0.6506,0.6526,0.6553,0.6563,0.6588,0.661,0.6644,0.6659,0.6677,0.6678,0.6683,0.6684,0.6685,0.6684,0.6663,0.6682,0.6682,0.6682,0.6682,0.6682,0,0.6386,0.6403,0.6424,0.6453,0.6471,0.6479,0.6502,0.6516,0.6538,0.6558,0.6578,0.6605,0.6628,0.6649,0.6673,0.6684,0.6688,0.6689,0.6689,0.6692,0.6682,0.6677,0.6685,0.6685,0.6685,0.6685,0.6685,0.6685,0.6394,0.6418,0.6431,0.6464,0.648,0.6505,0.6518,0.6535,0.6552,0.6582,0.6601,0.6615,0.6636,0.6661,0.6683,0.6688,0.6696,0.6696,0.6703,0.6693,0.6692,0.6692,0.6687,0.6698,0.6698,0.6711,0.6711,0.6711]},{"header":{"parameterUnit":"m.s-1","parameterCategory":1,"la1":30.2991,"la2":30.254,"lo1":-89.0895,"lo2":-89.0444,"dy":0.0017,"dx":0.0017,"nx":28,"ny":28,"refTime":"2023-10-22T03:00:00:Z","depth":0,"parameterNumber":3,"parameterNumberName":"V-component_of_WINDS"},"data":[0,0,0,0,0,0,0,0,0,0,0,0,0,0,0,0,0,0,0,0,0,0,0,0,0,0,0,0,0,0,0,0,0,0,0,0,0,0,0,0,0,0,0,0,0,0,0,0,0,0,0,0,0,0,0,0,0,0,1.4436,1.4435,0,1.4389,1.4388,1.4388,1.4362,1.4362,1.4362,1.4361,1.4309,1.4308,1.4306,0,0,0,0,0,0,0,0,0,0,0,0,0,1.4501,1.4499,1.4436,1.4435,1.4435,1.4389,1.4388,1.4388,1.4362,1.4362,1.4362,1.4361,1.4309,1.4308,1.4306,0,0,0,0,0,0,0,0,0,0,0,0,0,1.4465,1.4499,1.4436,1.4416,1.4414,1.4389,1.4388,1.4387,1.4362,1.4362,1.4362,1.4361,1.431,1.4308,1.4306,1.4295,0,0,1.43,1.4299,0,0,0,0,0,0,0,0,1.4467,1.4462,1.442,1.4418,1.4415,1.4381,1.4392,1.4356,1.4362,1.4381,1.4361,1.4361,1.4333,1.4329,1.432,1.4293,1.429,1.4299,1.4298,1.4297,1.4297,0,0,0,0,0,0,0,1.4469,1.4464,1.4417,1.4419,1.4416,1.4409,1.4404,1.4385,1.4358,1.438,1.4378,1.4373,1.4331,1.4322,1.4319,1.429,1.43,1.4298,1.4296,1.4296,1.4253,1.4253,0,0,0,0,0,0,1.4475,1.4466,1.4419,1.4416,1.4441,1.4408,1.4402,1.4392,1.4358,1.4353,1.4373,1.4372,1.4325,1.4321,1.4317,1.4303,1.4297,1.4296,1.4294,1.4253,1.4253,1.4253,0,0,0,0,0,0,1.4477,1.4471,1.442,1.4441,1.4434,1.4407,1.4396,1.4391,1.4382,1.4353,1.4348,1.4369,1.4325,1.4319,1.4301,1.4301,1.4295,1.4293,1.4253,1.4253,1.4253,1.4275,0,0,0,0,0,0,1.4479,1.4472,1.4468,1.4441,1.4433,1.4407,1.4396,1.439,1.4379,1.4377,1.4347,1.4342,1.4325,1.4305,1.4299,1.4298,1.4291,1.4253,1.4253,1.4253,1.4274,1.4275,1.4277,0,0,0,0,0,1.4481,1.4475,1.4468,1.4463,1.4427,1.4407,1.4402,1.4383,1.4379,1.4375,1.4357,1.4343,1.4302,1.4303,1.4297,1.4295,1.4252,1.4253,1.4253,1.4273,1.4275,1.4277,0,0,0,0,0,0,1.4501,1.4471,1.4463,1.4448,1.4431,1.4403,1.4396,1.4385,1.4367,1.4366,1.4342,1.4336,1.432,1.4305,1.4307,1.4283,1.4276,1.4275,1.4293,1.4295,1.4296,1.43,1.429,0,0,0,0,0,1.4504,1.4491,1.4465,1.4454,1.4446,1.4423,1.4413,1.44,1.438,1.4372,1.4353,1.4333,1.4316,1.4304,1.4287,1.4272,1.4265,1.4267,1.4269,1.427,1.427,1.4262,1.4263,1.4253,1.4253,1.4253,0,0,1.4509,1.4491,1.4484,1.4457,1.4442,1.4429,1.4417,1.4402,1.4392,1.437,1.4352,1.4337,1.4314,1.4298,1.429,1.4285,1.4271,1.4271,1.4272,1.427,1.4262,1.4263,1.4264,1.4253,1.4253,1.4253,0,0,1.4512,1.4497,1.4487,1.4473,1.4451,1.4436,1.4434,1.4408,1.4398,1.438,1.4364,1.4351,1.4321,1.4306,1.4294,1.4293,1.4281,1.4288,1.4295,1.4288,1.4289,1.429,1.429,1.429,1.4287,1.4287,1.4287,0,1.452,1.45,1.4482,1.447,1.4459,1.4441,1.443,1.4417,1.439,1.4382,1.4378,1.4342,1.4324,1.4305,1.4306,1.4296,1.4293,1.4291,1.4291,1.4291,1.4291,1.4291,1.4291,1.4288,1.4288,1.4288,1.4288,0,1.4512,1.4499,1.4493,1.447,1.4458,1.4447,1.4427,1.4417,1.4406,1.4391,1.4374,1.4353,1.4332,1.4326,1.4314,1.4306,1.4304,1.4295,1.4287,1.4294,1.4293,1.4293,1.429,1.429,1.4289,1.4289,0,0,1.4524,1.4493,1.4491,1.4481,1.4457,1.4446,1.4434,1.4415,1.4407,1.4389,1.4379,1.4355,1.4348,1.4335,1.4321,1.4315,1.4317,1.4307,1.4306,1.431,1.4307,1.4314,1.4314,1.4309,1.4309,1.4309,1.4309,0,1.4523,1.4502,1.4487,1.4471,1.4459,1.4443,1.4432,1.4416,1.4403,1.439,1.4374,1.4358,1.435,1.4342,1.4335,1.4318,1.4316,1.4318,1.4298,1.4298,1.4305,1.4314,1.432,1.4322,1.4309,1.4309,1.4309,0,1.4519,1.4505,1.4489,1.4468,1.4462,1.4453,1.4435,1.4423,1.4404,1.4395,1.4382,1.4368,1.4355,1.4349,1.433,1.4331,1.4322,1.4313,1.4313,1.431,1.4303,1.4311,1.4321,1.4322,1.4308,1.4308,1.4309,0,1.453,1.4506,1.4494,1.4486,1.4461,1.4455,1.4444,1.4426,1.4416,1.44,1.4393,1.4376,1.4366,1.4352,1.4334,1.4331,1.4317,1.4309,1.4309,1.4309,1.4306,1.4306,1.4315,1.43,1.43,1.43,1.43,0,1.4531,1.4521,1.4499,1.4491,1.4481,1.4463,1.4453,1.4441,1.4425,1.4414,1.4399,1.4389,1.4366,1.4353,1.4339,1.4326,1.4321,1.4313,1.4309,1.4314,1.4316,1.4308,1.4307,1.43,1.43,1.43,1.43,0,1.454,1.4525,1.4511,1.4489,1.4484,1.4477,1.4458,1.445,1.4437,1.4424,1.442,1.4399,1.4383,1.4364,1.4342,1.4332,1.4321,1.4315,1.4328,1.4325,1.4326,1.4327,1.433,1.433,1.4316,1.4316,1.4316,0,1.4542,1.4535,1.4514,1.4506,1.4497,1.4485,1.4475,1.4458,1.4449,1.4429,1.4423,1.4407,1.4393,1.4369,1.4351,1.4334,1.4328,1.4331,1.4325,1.4331,1.4329,1.4329,1.4329,1.4332,1.4332,1.4332,1.4332,0,1.4546,1.4539,1.4527,1.4513,1.4503,1.449,1.4477,1.4472,1.4452,1.4442,1.4427,1.4417,1.4396,1.438,1.4361,1.4349,1.4337,1.4335,1.4334,1.4339,1.4346,1.4343,1.4332,1.4334,1.4334,1.4334,1.4334,1.4334,1.4551,1.4545,1.453,1.4517,1.4506,1.4495,1.4487,1.4474,1.4462,1.4444,1.4435,1.442,1.4403,1.4378,1.4366,1.4355,1.435,1.4349,1.4348,1.4348,1.435,1.4349,1.4351,1.4351,1.4351,1.4351,1.4351,0,1.4555,1.4545,1.4534,1.4517,1.4508,1.45,1.4485,1.4477,1.4466,1.4451,1.4439,1.4423,1.4408,1.439,1.4374,1.4368,1.4362,1.4364,1.4364,1.4362,1.4354,1.4357,1.4369,1.4369,1.4369,1.4369,1.4369,1.4369,1.4556,1.4545,1.4537,1.4521,1.4511,1.4498,1.4491,1.448,1.4469,1.4452,1.4441,1.443,1.4414,1.4398,1.4384,1.4379,1.4374,1.4377,1.4371,1.4364,1.4362,1.4361,1.4363,1.4376,1.4376,1.4379,1.4379,1.4379]}]]